NapervilleWeather.com

Find the Weather for any City, State  
or Zipcode, or Country:

Naperville, IL Weather
Local Radar

Local Radar

Graphs, Details
Graphs and Gauges
Detailed Weather
Detailed Reports
Ajax Version (old)
Davis Summary
Davis Current Weather Graphs
Davis 24 Hour Weather History
Cumulus

CW7164 Data

Weather Underground
www.awekas.at
Automatic Weather Map System
Latest Naperville, Illinois, weather
Weather For You
Maps
Temperature
Heat Index
Windchill
Humidity
Radar
Dew Point
Wind
Visibility
Visible Satellite
Satellite
Fronts
Snow Depth
Jet Stream
Flight Rules
Forecast Maps
Temperature Forecast
Maximum Temperature Forecast
Minimum Temperature Forecast
Dewpoint Forecast
Prevalent Weather
12Hr Probability of Precip.
Sky Cover
Health Maps
UV Forecast
Air Quality
Peak Air Quality Index
Weather Station
Davis Instruments Vantage Pro2
Current Conditions [Select Refresh to Update]

Updated: 12:45am on 5/31/16

(location)
Currently:
67.9°F

Clear
Partly Cloudy

High: 68.8 °F< 
(12:00am
Low: 67.9 °F 
(12:36am)
Wind: W 0 mph
Calm
Gust: 0 mph
Today's High Wind: 0 mph (12:00am)
Humidity: 65%
Pressure: 29.97 in  (Steady
Pressure Rate: -0.000 in/hr
Dew Point: 55.7°F
Wind Chill: 67.9 °F
Heat Index (feels like): 70.3 °F
Comfort Level: Comfortable
Temperature Rate:  -0.62°F/hr
 
5 Day Forecast
 
Tue Wed Thu Fri Sat
Clear Clear Clear Clear Clear
Chance T-storms T-storms Partly Cloudy Partly Cloudy Chance T-storms
86 79 74 77 79
64 58 54 59 59

Records and Normals
 
Temperature Forecast Normal Record
High 86 76 88
(2014)
Low 64 53 36
(2003)
 
 
Weather Advisories
No Warnings
Full Advisory Text...
Weather Map

Web Cam

Almanac
 
Sunrise:  
5:20am
Moonrise: 
2:32am

Moon Phase:
31%

Sunset: 
8:20pm
Moonset:  
3:07pm
 Star Chart...
Rainfall Totals
Hourly Rain 0.00 in
Daily Rain: 0.00 in
Monthly Rain: 4.92 in
Yearly Rain: 13.57 in
Normal Rain, month to date: 5.59 in
Normal Rain, year to date: 13.71 in
Local Weather Exchange Network
Station ID City 
(Click for Map Location)
Neighborhood 
(Click for History)
Last Update (Date & Time) Temperature
 ()
Dew
Point ()
Humidity 
(%)
Wind 
(mph)
from the Wind Gust 
(mph) 
Pressure(in) Hourly
Rain(in)
KILNAPER15 Naperville Indian Hill Near Jefferson JHS 05/31 00:40:02 68.8 56.0 65 0 North 0 29.94 0.00
KILNAPER33 Naperville Downtown 05/31 00:36:37 70.7 54.0 56 0 North 0 29.92 0.00
KILNAPER28 Naperville Pawnee Lane 05/31 00:35:40 71.1 57.0 60 0 North 0 30.04 0.00
KILNAPER25 Naperville brushhill-w 05/31 00:35:31 68.6 57.0 66 0 WNW 0 29.93 0.00
KILNAPER24 Naperville Brush Hill 05/31 00:26:10 68.7 58.0 68 0 NE 0 29.89 0.00
KILNAPER19 Naperville Brookdale Lakes 05/31 00:39:50 68.6 58.0 69 0 East 1 29.95 0.00
KILNAPER65 Naperville South Sleight Street 05/31 00:37:48 71.6 58.0 62 0 North 0 29.16 0.00
KILNAPER69 Naperville East Highlands 05/31 00:40:00 68.2 57.0 67 0 SE 0 29.96 0.00
KILNAPER7 Naperville NapervilleWeather.com Near Ogden and Naper Blvd 05/31 00:40:00 67.9 56.0 65 0 West 0 29.97 0.00
KILWARRE2 Warrenville Warrenville Neighborhood Weather 05/31 00:36:36 64.5 59.0 81 0 South 0 29.92 0.00
KILNAPER60 Naperville Longwood 05/31 00:39:33 69.8 57.0 64 1 ESE 3 29.98 0.00
KILNAPER31 Naperville Savannah Circle 05/31 00:36:16 68.9 49.0 48 0 North 0 29.81 0.00
KILLISLE15 Lisle Highview Drive 05/31 00:37:36 71.2 56.0 59 0 North 0 29.86 0.00
KILNAPER38 Naperville East Highlands 05/31 00:39:52 68.2 61.0 77 0 West 0 30.17 0.00
KILNAPER23 Naperville Naper Blvd at BNSF RR 05/31 00:39:59 66.8 58.0 73 0 North 0 29.97 0.00
KILNAPER30 Naperville Cypress Drive 05/31 00:35:47 71.2 56.0 59 0 North 0 29.82 0.00
KILLISLE10 Lisle Maple Avenue 05/31 00:36:23 69.8 57.0 63 0 North 0 30.03 0.00
KILNAPER70 Naperville Naperville Central 05/31 00:39:20 68.2 57.0 68 0 ENE 0 29.97 0.00
KILLISLE9 Lisle Park Meadow Drive 05/31 00:35:36 73.0 58.0 59 0 North 0 30.00 0.00
KILWARRE6 Warrenville Summer Lakes 05/31 00:30:27 64.3 58.0 80 0 ENE 0 29.95 0.00
KILNAPER56 Naperville Ann Reid ECC 05/31 00:33:50 67.8 58.0 70 5 ENE 0 29.91 0.00
KILNAPER9 Naperville 75th St. / Modaff Area 05/31 00:39:59 64.0 58.0 80 0 WNW 0 29.94 0.00
KILLISLE7 Lisle Beau Monde Drive 05/31 00:35:51 69.8 57.0 63 0 North 0 30.04 0.00
KILWHEAT8 Wheaton Wheaton Sanitary District 05/31 00:28:53 67.4 60.0 77 0 ENE 0 29.95 0.00
KILWHEAT15 Wheaton Schubert Court 05/31 00:37:31 69.3 53.0 55 0 North 0 29.91 0.00
KILWHEAT11 Wheaton Wheaton SW Orth Ct 05/31 00:39:55 67.7 55.0 64 0 WNW 0 30.09 0.00
KILNAPER72 Naperville Blackstone Drive 05/31 00:37:45 72.7 56.0 56 0 North 0 30.11 0.00
KILLISLE13 Lisle Oakwood Drive 05/31 00:35:39 70.7 57.0 61 0 North 0 29.94 0.00
KILNAPER67 Naperville Split Oak Road 05/31 00:37:43 66.6 54.0 64 0 North 0 30.01 0.00
KILAUROR31 Aurora Downing Court 05/31 00:37:13 69.3 58.0 67 0 North 0 30.04 0.00
KILAUROR27 Aurora Stonehaven 05/31 00:25:00 67.5 57.0 69 0 NNE 0 29.78 0.00
KILAUROR50 Aurora Reddington Drive 05/31 00:36:49 68.7 50.0 50 0 North 0 29.17 0.00
KILNAPER61 Naperville Modaff Road 05/31 00:37:10 71.2 59.0 64 0 North 0 30.06 0.00
KDPA Chicago DuPage Official Station 05/30 23:52:00 68.0 54.0 61 5 East --- 29.98 ---
KLOT Romeoville Official Station 05/31 00:15:00 68.0 54.0 61 8 ENE --- 29.98 ---
KARR Aurora Official Station 05/30 23:52:00 69.0 57.0 65 8 ENE --- 29.98 ---
KJOT Joliet Official Station 05/31 00:15:00 70.0 58.0 65 4 East --- 29.98 ---
Full Advisory Text
No Warnings

Ambient Weather and Weather Underground
 Never base important decisions on this or any weather information obtained from the Internet
Updated Automatically by Ambient Weather's Virtual Weather Station  V14.01